User: anonymous
Location: Cranbrook Institute of Science
(42.5830°N, 83.2450°W)
Time: 14:06:11
(UTC-04:00)
Language:

CZ-4B R/B - Orbit

View from above orbital plane
View from above orbital plane
View from above satellite
View from above satellite

Ground track
Ground track

The orbit data is extracted from the following two-line orbital elements,

1 29093U 06015B   14204.44875885  .00003108  00000-0  11473-3 0  3495
2 29093 097.5211 284.0710 0092081 133.0816 355.7048 15.24591476455105
Epoch (UTC): 23 July 2014 10:46:12
Eccentricity: 0.0092081
inclination: 97.5211°
perigee height: 429 km
apogee height: 555 km
right ascension of ascending node: 284.0710°
argument of perigee: 133.0816°
revolutions per day: 15.24591476
mean anomaly at epoch: 355.7048°
orbit number at epoch: 45510

The dashed part of the orbit path shows where the satellite is in the earth's shadow,  

DLR